Showing default

POLYTECH UNIVERSE-4, 61747

Orbit data source: Space-Track

POLYTECH UNIVERSE-4, 61747 is a payload satellite owned by Polytech (CIS) in SSO that was launched on Mon, 04 Nov 2024 UTC via a SOYUZ-2-1B launch vehicle from the Vostochny Cosmodrome (VOSTO). Payload-class satellites include a variety of spacecraft equipped with specific instruments for various scientific and technological missions. These include communications satellites like Starlink; space stations such as the ISS; scientific satellites like the Hubble; Earth observation satellites from companies like Planet Labs, Umbra, and HawkEye 360; GPS; miniature CubeSats for education and research; and military/defense satellites.

Loading next visibility...
Identifier
61747, 2024-199N
Orbit
SSO
Country
Flag of CISCIS
Related business
Manufacturer
STTs
Mission
Operational Amateur Science
Bus & Motor
CUBESAT 3U, Unknown motor
Mass
5.07 kg wet, 5.07 kg dry
Launch date (UTC)
2024-11-04 (1 year ago)
Launch vehicle
SOYUZ-2-1B
Launch site
Vostochny Cosmodrome (VOSTO)
Object type
Payload
Rocket body
Debris
Shape & HBR
Box, 0.1 m
Radar Cross Section
0.035 m², Small (<0.1 m²)

Expand to show TLE details & history
Last TLE update: 8 hours ago

TLE from 8 hours ago
0 POLYTECH UNIVERSE-4
1 61747U 24199N   25295.18248344  .00020394  00000-0  58465-3 0  9996
2 61747  97.3324 162.9757 0013151  64.0961 296.1637 15.35838483100710
Epoch: 2025-10-22T04:22Z
TLE epoch observation values (Epoch: 2025-10-22T04:22:46.569Z)
Latitude
0.00001°
Longitude
66.4219°
Altitude
457.589 km
Speed
7.64 km/s
True Right ascension
10h 51m 54s
True Declination
0° 00' 00"
Sunlit
Object was in daylight at epoch
Visualization orbit readout
Latitude
Unknown
Longitude
Unknown
Altitude
Unknown
Speed
Unknown
Apparent Right ascension
Unknown
Apparent Declination
Unknown
Sunlit
N/A
Visualization observer readout
Local Sidereal Time
07:18:17
Azimuth
Unknown
Elevation
Unknown
Doppler factor
Unknown
Orbital elements
Apogee altitude
464.359 km
Perigee altitude
446.386 km
Semi-major axis
6,833.51 km
Eccentricity
0.00132
Inclination
97.3324°
RAAN
162.9757°
Arg. of periapsis
64.0961°
True anomaly
296.02834°
Mean anomaly
296.1637°
Eccentric anomaly
296.09603°
Mean motion
3.84218 °/min
Orbital period
93.7 mins
BSTAR
0.00058465
Loading maneuver chart data...
Computing Atmospheric mass density...
Loading historical data...
Loading historical data...
Loading historical data...
Loading historical data...
Loading historical data...
Loading historical data...
Loading historical data...

Documentation

Showing up to 5 results
|